Location: Quedlinburg
(51.7921°N, 11.1414°E)
Time: 09:40:02
(UTC+02:00)

RS-44 - Pass Details

Date: 20 March 2026
Orbit: 1175 x 1510 km, 82.5° (Epoch: 17 April)

Event Time Altitude Azimuth Distance (km) Brightness Sun altitude
Rises 22:56:13 0° 347° (NNW) 4,396 ? -35.0°
Reaches altitude 10° 23:01:26 10° 15° (NNE) 3,500 ? -35.3°
Maximum altitude 23:04:46 13° 39° (NE) 3,341 ? -35.5°
Drops below altitude 10° 23:08:09 10° 63° (ENE) 3,583 ? -35.8°
Enters shadow 23:10:47 - 78° (ENE) 4,008 ? -35.9°
